If you wish to contribute or participate in the discussions about articles you are invited to join SKYbrary as a registered user

 Actions

Beale Air Force Base

From SKYbrary Wiki

KBAB
Airport
ICAO: KBAB
Summary
Name Beale Air Force Base
Region North America
Territory United States US.gif
Location Marysville, California
Serving
Coordinates 39° 8' 47.37" N, 121° 26' 5.15" W
Runways
Designator Length Width Surface ROPS
15/33 3658 m12,001.312 ft
91 m298.556 ft
CON yes/yes


METAR
Observation KBAB 181758Z AUTO 17003KT 7SM CLR 18/04 A3005 RMK AO2 SLP179 T01770036 10177 20053 $
Station Marysville, Beale Air Force Base
Date/Time 18 October 2019 17:58:00
Wind direction 170°
Wind speed 03 kts
Lowest cloud amount n/a
Temperature 17.7°C
Dew point 3.6°C
Humidity 39%
QNH hPa
Weather condition n/a

Beale Air Force Base

ICAO: KBAB IATA: BAB

Description

Beale Air Force Base (AFB) is a United States Air Force base located approximately 20 km10.799 nm
20,000 m
65,616.798 ft
east of Yuba City, California.

Climatology

Dry-summer subtropical ”Mediterranean" climate (Köppen climate classification Csb) - characterized by warm, dry summers and mild winters.

Maps

Terrain

Loading map...

Airport Layout

Loading map...


Accidents & Serious Incidents at or in vicinity of KBAB

None on SKYbrary